Location: Bjelajci
(45.0103°N, 16.1758°E)
Time: 09:53:36
(UTC+00:00)

Spot 1 - Pass Details

Date: 14 July 2020
Orbit: 575 x 777 km, 98.7° (Epoch: 07 August)

Event Time Altitude Azimuth Distance (km) Brightness Sun altitude
Exits shadow 00:09:49 45° 157° (SSE) 985 4.7 -21.5°
Maximum altitude 00:11:21 83° 74° (ENE) 723 4.3 -21.5°
Drops below altitude 10° 00:16:02 10° 347° (NNW) 2,134 7.6 -21.2°
Sets 00:18:13 0° 347° (NNW) 3,021 8.5 -21.1°
